Zurück zum Katalog

RADUGA 1-1

AktivKommunikationGEO
NORAD 20083·PAYLOAD·🇷🇺 Russia

Gestartet Jun 21, 1989 von Baikonur Cosmodrome

Loading…

TLE

AktuellSource: Space-Track

Epoche: Sep 13, 2026, 22:28 UTC

1 20083U 89048A   26256.93636281 -.00000148  00000-0  00000-0 0  9995
2 20083  12.6366 334.6310 0018572 153.9235 215.6823  0.98710437132158

Verfolge RADUGA 1-1 in Echtzeit mit AllMySat

Download on the App Store